This is the latest recevied weather packets stored in our database for station/object KB3UMW-13. If no packets are shown the sender has not sent any weather packets the latest 10 day(s).
| Time | Temp. | Humidity | Pressure | Rain* | Wind** | Luminosity | Snow |
|---|---|---|---|---|---|---|---|
| 1777655202 | 12.78° C | 55% | 1011.3 hPa | 0 mm | - | 370 W/m² | - |
| 1777654899 | 12.78° C | 49% | 1011.4 hPa | 0 mm | - | 380 W/m² | - |
| 1777654596 | 12.78° C | 51% | 1011.4 hPa | 0 mm | - | 379 W/m² | - |
| 1777654293 | 12.22° C | 46% | 1011.5 hPa | 0 mm | - | 309 W/m² | - |
| 1777653992 | 12.22° C | 50% | 1011.5 hPa | 0 mm | - | 288 W/m² | - |
| 1777653688 | 12.22° C | 53% | 1011.6 hPa | 0 mm | - | 302 W/m² | - |
| 1777653385 | 12.22° C | 56% | 1011.7 hPa | 0 mm | - | 300 W/m² | - |
| 1777653082 | 12.78° C | 57% | 1012 hPa | 0 mm | - | 343 W/m² | - |
| 1777652777 | 12.22° C | 56% | 1012 hPa | 0 mm | - | 319 W/m² | - |
| 1777652475 | 12.22° C | 57% | 1012 hPa | 0 mm | - | 326 W/m² | - |
| 1777652172 | 12.78° C | 53% | 1012 hPa | 0 mm | - | 341 W/m² | - |
| 1777651863 | 13.33° C | 55% | 1012.1 hPa | 0 mm | - | 365 W/m² | - |
| 1777651560 | 13.33° C | 49% | 1012 hPa | 0 mm | - | 558 W/m² | - |
| 1777651257 | 12.78° C | 52% | 1012.1 hPa | 0 mm | - | 566 W/m² | - |
| 1777650953 | 12.22° C | 50% | 1012 hPa | 0 mm | - | 498 W/m² | - |
| 1777650651 | 12.22° C | 51% | 1012.1 hPa | 0 mm | - | 446 W/m² | - |
| 1777650348 | 11.67° C | 61% | 1012.3 hPa | 0 mm | - | 413 W/m² | - |
| 1777650044 | 11.67° C | 57% | 1012.4 hPa | 0 mm | - | 363 W/m² | - |
| 1777649742 | 11.67° C | 57% | 1012.5 hPa | 0 mm | - | 371 W/m² | - |
| 1777649439 | 11.67° C | 51% | 1012.5 hPa | 0 mm | - | 327 W/m² | - |
| 1777649136 | 11.11° C | 57% | 1012.7 hPa | 0 mm | - | 313 W/m² | - |
| 1777648833 | 11.67° C | 60% | 1012.7 hPa | 0 mm | - | 470 W/m² | - |
| 1777648529 | 12.22° C | 65% | 1012.9 hPa | 0 mm | - | 509 W/m² | - |
| 1777648226 | 11.67° C | 74% | 1012.8 hPa | 0 mm | - | 603 W/m² | - |
| 1777647921 | 11.67° C | 54% | 1013 hPa | 0 mm | - | 384 W/m² | - |
* Rain latest hour (hover to see other rain measurements)
** Current wind speed in m/s (hover to see current wind gust speed)